Location: Newark
(55.7083°N, 13.1992°E)
Time: 22:06:57
(UTC+00:00)

N. Korean satellite - Pass Details

Date: 29 January 2020
Orbit: 456 x 505 km, 97.2° (Epoch: 19 February)

Event Time Altitude Azimuth Distance (km) Brightness Sun altitude
Rises 03:57:43 0° 26° (NNE) 2,548 10.7 -26.4°
Reaches altitude 10° 04:00:24 10° 49° (NE) 1,673 10.0 -26.1°
Maximum altitude 04:02:45 16° 90° (E) 1,330 9.6 -25.7°
Drops below altitude 10° 04:05:06 10° 130° (SE) 1,682 9.8 -25.4°
Sets 04:07:47 0° 152° (SSE) 2,568 10.5 -25.0°
